Погода в Одессе

Погода в Одессе : погода сейчас, прогноз погоды и архив. Всё, что Вы хотите узнать о погоде в Одессе!

Хотите узнать прогноз погоды в Одессе? Тогда Вам сюда: Погода в Одессе

Поиск расширенной информации на нашем сайте:

Другие новости

Новости СМИ2

Главная страница сайта

Новости сайта

03.07.2017

Напоминаем, что на нашем специализированном сайте Метеоцентр.Азия вы можете получить высокодетализированные автоматические прогнозы погоды по пунктам России, СНГ и мира в авиационном формате (включающие направление и скорость ветра, видимость, явления погоды, количество и форму облачности, нижнюю и верхнюю границу облачности).


Погода в Одессе - сегодня

Время (UTC), дата Ветер
(°,м/с) 
Видим.   Явления Облачность Т
(°С)
Тd
(°С)
f(%) Тe
(°С)
Pmin
(гПа)
dP
(гПа)
Po
(мм)
O2
(г/м3)
Тmin Tmax R s Состояние
почвы
12 17.09.17 130 (ЮВ) 20000 м    ясно 
+24.5 +18.4 69 +39  1015.2  -1.9  758  276           
15 17.09.17 180 (Ю) 20000 м    6/0 верхняя 
[Ci fib]
+22.8 +19 79 +39  1013.2  -2  756  277           
18 17.09.17 180 (Ю) 8000 м  дымка  ясно 
+21.1 +19.2 89 +38  1012.8  -0.4  756  278    +25       
21 17.09.17 270 (З) 10 км    ясно 
+19.8 +18.3 91 +21    -0.2             
00 18.09.17 240 (ЮЗ) 7000 м  дымка  ясно 
+19.3 +18.1 93 +35  1012.4  -0.2  756  280           
03 18.09.17 270 (З) 4500 м  дымка  ясно 
+17.6 +16.8 95 +31  1012.3  -0.2  755  282           
06 18.09.17 180 (Ю) 17000 м    ясно 
+22.2 +17.8 76 +36  1012.5  0.3  756  278  +17.5  +2.6       
09 18.09.17 160 (Ю) 12000 м    ясно 
+25.8 +18.2 63 +40  1012.9  0.5  756  274           
12 18.09.17 180 (Ю) 30000 м    ясно 
+27.3 +15.7 49 +37  1012.1  -0.8  755  273           
15 18.09.17 350 (С) 23000 м    ясно 
+25.4 +14.8 52 +34  1012.2  0.1  756  276           
18 18.09.17 330 (СЗ) 45000 м    ясно 
+24.7 +5.5 29 +25  1013.5  1.2  756  279    +27.7       
21 18.09.17 330 (СЗ) 30000 м    ясно 
+21.8 +3.9 31 +22  1014.8  1.3  757  282           
00 19.09.17 010 (С) 45000 м    ясно 
+18.5 +9 54 +19  1016.1  1.2  758  285           
03 19.09.17 020 (С) 50000 м    ясно 
+17.2 +8.1 55 +18  1016.8  0.7  759  286           
06 19.09.17 050 (СВ) 22000 м    ясно 
+18.8 +9.3 54 +19  1017  0.2  759  285  +16.5         
09 19.09.17 050 (СВ) 30000 м    8/0 средняя, верхняя 
[Ac cast|Ci sp]
+22 +8.5 42 +22  1016.3  -0.6  759  281           
12 19.09.17 060 (СВ) 35000 м    4/0 верхняя 
[Ci sp]
+23.9 +12.5 49 +28  1014.5  -1.8  757  278           
15 19.09.17 050 (СВ) 40000 м    ясно 
+24.4 +11 43 +27  1013.1  -1.4  756  278           
18 19.09.17 030 (СВ) 27000 м    ясно 
+22.6 +16.4 68 +34  1013.3  0.2  756  278    +24.8       
21 19.09.17 080 (В) 23000 м    ясно 
+22.3 +14.2 60 +29  1012.6  -0.7  756  279           
00 20.09.17 100 (В) 26000 м    ясно 
+21.6 +15.2 67 +22  1011.3  -1.3             
03 20.09.17 080 (В) 16000 м    8/6 360 м средняя, верхняя 
[Sc|Ac trans|Ci fib]
+21.1 +16.9 77 +33  1011  -0.3  755  279           
06 20.09.17 090 (В) 23000 м    8/4 900 м верхняя 
[Sc|Ci fib]
+22.1 +18.6 81 +37  1011.1  0.1  755  277  +19.9  +2.9       
09 20.09.17 140 (ЮВ) 14000 м    4/4 180 м 
[St]
+23.7 +19.8 79 +42  1011.2  0.2  755  275           
12 20.09.17 150 (ЮВ) 12000 м    8/8 960 м 
[Sc]
+23.5 +20.6 84 +43  1010.9  -0.3  755  275           
Время (UTC), дата Ветер
(°,м/с) 
Видим.   Явления Облачность Т
(°С)
Тd
(°С)
f(%) Тe
(°С)
Pmin
(гПа)
dP
(гПа)
Po
(мм)
O2
(г/м3)
Тmin Tmax R s Состояние
почвы

Для получения пояснительной информации подведите курсор к названию столбца.

ПОГОДА в Одессе - архив

Всё, что Вы хотите узнать о погоде в Одессе - удобно и подробно!

Выберите нужную дату (начиная с 1 января 2015* года) и нажмите кнопку "Найти".
Будут отображены архивные сводки погоды по пункту Одесса, начиная с указанной даты.


Отображать данные в формате CSV (для использования в таблицах Excel)


Внимание! Наш архив погоды предназначен исключительно для личного некоммерческого использования в познавательных целях. Если Вам необходимы официальные справки о состоянии погоды (для производственных, юридических, коммерческих и т.п. целей), обращайтесь в органы Росгидромета.

*Примечание: данная дата относится к архиву по метеостанциям СССР (Россия, СНГ, Балтия).
Архив по метеостанциям Зарубежной Европы и Азии (кроме Китая) хранится 10 дней, по другим регионам земного шара (Китай, Африка, Америка, Австралия, Океания) - 1 день.

Одесса - район местоположения метеостанции


Название, широта, долгота, высота метеостанции:
Одесса (город) 46.4°ш. 30.8°д. 42 м над ур. моря [Украина]

Дополнительная информация

В oтличие oт бoльшинства пoгoдных сайтoв мы публикуем пoдрoбную метеoинфoрмацию в детальнoм прoфессиoнальнoм фoрмате.

Характеристики температуры и влажнoсти вoздуха измеряются на высoте 2 м в тени вдали oт зданий и деревьев.
Скoрoсть ветра измеряется на высoте 10 м (на урoвне рoста челoвека скoрoсть ветра ниже в 1.5-2 раза). Если метеoстанция нахoдится в гoрoде или в лесу, тo скoрoсть ветра занижена на 2-4 м/с пo сравнению с oткрытым местoм. Скoрoсть ветра над акватoриями крупных рек и oзёр, а также на вершинах хoлмoв на 2-5 м/с выше, чем в oбычных услoвиях.
Атмoсфернoе давление в разных тoчках местнoсти мoжет значительнo oтличаться oт давления на метеoстанции, в зависимoсти oт услoвий рельефа (при пoдъёме на 10 м давление пoнижается примернo на 1 мм рт.ст.).